Terminal Aerodrome Forecast
Issued by NWS

Home | Current Version | Previous Version | Text Only | Print | Product List | Glossary On
Versions: 1 2 3 4 5 6 7 8 9 10 11 12 13 14 15
000
FTUS43 KLSX 170100 AAA
TAFSUS
TAF AMD
KSUS 170119Z 1701/1724 16007KT P6SM BKN250
     FM171500 22007KT P6SM SCT040 BKN150
     FM172000 28010KT P6SM BKN070=

USA.gov is the U.S. government's official web portal to all federal, state and local government web resources and services.